Weather Roundup
Issued by NWS

Home | Current Version | Previous Version | Text Only | Print | Product List | Glossary On
Versions: 1 2 3 4 5 6 7 8 9 10 11 12 13 14 15 16 17 18 19 20 21 22 23 24 25 26 27 28 29 30 31 32 33 34 35 36 37 38 39 40 41 42 43 44 45 46 47 48 49 50
000
NZUS93 KARX 040010
HRRWXR

CURRENT HOURLY OBSERVATIONS ACROSS
MUCH OF THE UPPER MISSISSIPPI VALLEY
NATIONAL WEATHER SERVICE LA CROSSE WI
600 PM CST SAT DEC 03 2016


...SOUTHEAST MINNESOTA...


CITY           SKY/WX    TMP DP  RH WIND       PRES   REMARKS
ROCHESTER      CLOUDY    30  25  81 SE9       30.21F WCI  22
ROCHESTER/MAYO CLOUDY    31  24  75 SE8       30.22F WCI  23
WINONA         CLOUDY    32  25  74 CALM      30.26F
AUSTIN         FLURRIES  30  28  93 SE6       30.20F WCI  24
ALBERT LEA     CLOUDY    36  34  93 S8        30.19F WCI  29
DODGE CENTER   CLOUDY    30  27  86 SE8       30.20F WCI  23
PRESTON        CLOUDY    30  23  74 SE5       30.22F WCI  25
OWATONNA       PTCLDY    32  27  80 SE8       30.20F WCI  25
FARIBAULT      CLOUDY    32  27  80 SE6       30.21F WCI  26
$$

...ELSEWHERE IN MINNESOTA...


CITY           SKY/WX    TMP DP  RH WIND       PRES   REMARKS
MINNEAPOLIS    CLOUDY    31  22  69 SE7       30.22F WCI  24
INTNL FALLS    CLOUDY    26  19  74 SE6       30.13F WCI  19
DULUTH         CLOUDY    29  21  72 S9        30.18S WCI  20
RED WING       CLOUDY    32  21  64 SE8       30.23F WCI  25
REDWOOD FALLS  LGT SNOW  33  30  88 SE12      30.14F FOG     WCI  24
MANKATO        CLOUDY    34  28  80 SE9       30.19F WCI  26
WORTHINGTON    LGT SNOW  33  31  92 S14       30.11F FOG     WCI  23
FAIRMONT       MIX PCPN  34  33  96 S14       30.17F WCI  25
$$

...SOUTHWEST WISCONSIN...


CITY           SKY/WX    TMP DP  RH WIND       PRES   REMARKS
LA CROSSE      CLOUDY    34  25  69 CALM      30.27S
PRAIRIE DU CHI CLOUDY    34  26  72 CALM      30.26F
BOSCOBEL       CLOUDY    34  26  72 NE3       30.28F
LONE ROCK      CLOUDY    31  26  82 NE3       30.28F
PLATTEVILLE    PTCLDY    33  29  88 E3        30.26S
FORT MC COY    CLOUDY    32  25  77 CALM      30.27F
CAMP DOUGLAS   CLOUDY    32  22  67 CALM      30.26F
MAUSTON-NEW LI CLOUDY    32  23  69 CALM      30.26F
VIROQUA        CLOUDY    30  26  86 SE5       30.24F WCI  25
WIS DELLS      CLOUDY    31  23  72 CALM      30.26F
$$

...ELSEWHERE IN WISCONSIN...


CITY           SKY/WX    TMP DP  RH WIND       PRES   REMARKS
MILWAUKEE      CLOUDY    33  21  61 NW6       30.29F WCI  28
MADISON        CLOUDY    32  23  69 CALM      30.27F
GREEN BAY      CLOUDY    33  25  72 SW3       30.28S
EAU CLAIRE     CLOUDY    30  21  69 S8        30.25S WCI  22
BLACK RVR FLS  CLOUDY    31  23  73 CALM      30.26S
MEDFORD        CLOUDY    28  22  78 S7        30.22S WCI  21
WAUSAU         CLOUDY    29  21  72 SW5       30.24S WCI  24
WIS RAPIDS     CLOUDY    29  22  75 SE3       30.27F
MARSHFIELD     CLOUDY    28  21  75 CALM      30.24S
RICE LAKE      CLOUDY    30  22  74 S6        30.24F WCI  24
$$

...NORTHEAST IOWA...


CITY           SKY/WX    TMP DP  RH WIND       PRES   REMARKS
WATERLOO       CLOUDY    37  29  72 SE3       30.23F
DUBUQUE        CLOUDY    34  27  75 E3        30.25F
DECORAH        CLOUDY    32  25  74 CALM      30.23F
MASON CITY     LGT SNOW  33  32  96 S6        30.21F FOG     WCI  28
CHARLES CITY   CLOUDY    36  30  80 SE5       30.22F WCI  32
OELWEIN        CLOUDY    36  32  87 CALM      30.24S
$$

...ELSEWHERE IN IOWA...


CITY           SKY/WX    TMP DP  RH WIND       PRES   REMARKS
DES MOINES     LGT RAIN  40  33  76 E6        30.20F
IOWA CITY      CLOUDY    37  28  70 SE5       30.28S WCI  33
FORT DODGE     CLOUDY    34  30  86 SE5       30.19F WCI  30
MARSHALLTOWN   CLOUDY    36  32  85 S7        30.22F WCI  30
CEDAR RAPIDS   CLOUDY    35  30  82 S3        30.25R
$$

...NORTHERN ILLINOIS...


CITY           SKY/WX    TMP DP  RH WIND       PRES   REMARKS
CHICAGO-OHARE  CLOUDY    30  24  78 CALM      30.30S
CHICAGO-MIDWAY PTCLDY    33  23  66 S3        30.31S
MOLINE         CLOUDY    33  26  75 E5        30.27F WCI  29
ROCKFORD       CLOUDY    34  25  69 CALM      30.30F
PEORIA         PTCLDY    34  27  75 E5        30.30S WCI  30
$$

NOTE: "FAIR" INDICATES FEW OR NO CLOUDS BELOW 12,000 FEET WITH NO
SIGNIFICANT WEATHER AND/OR OBSTRUCTIONS TO VISIBILITY. WIND
SPEEDS ARE IN MILES-PER-HOUR.




USA.gov is the U.S. government's official web portal to all federal, state and local government web resources and services.